DW20401 Weather Reports


Display with metric or nautical units.
time (UTC)temp
F
wind
direction
speed
MPH
gust
MPH
rain 1hr
in
rain 24hr
in
rain mn
in
humidity
%
barometer
mb
20260506211323 60 144 0.0 1.0 0.01 0.10 0.10 100 1004.1
20260506210851 60 144 0.0 3.0 0.02 0.10 0.10 100 1004.1
20260506210333 60 144 0.0 3.0 0.02 0.10 0.10 100 1004.2
20260506205838 60 144 0.0 1.0 0.02 0.09 0.09 100 1004.1
20260506205340 60 130 0.0 1.0 0.02 0.09 0.09 100 1004.2
20260506204847 60 130 0.0 1.0 0.02 0.09 0.09 100 1004.2
20260506204346 60 130 0.0 0.0 0.02 0.09 0.09 100 1004.3
20260506203845 60 130 0.0 3.0 0.02 0.09 0.09 100 1004.3
20260506203358 60 130 0.0 3.0 0.02 0.09 0.09 100 1004.3
20260506202819 60 130 1.0 3.0 0.02 0.09 0.09 100 1004.3
20260506202321 60 130 0.0 3.0 0.02 0.09 0.09 100 1004.3
20260506201821 60 129 0.0 1.0 0.02 0.09 0.09 100 1004.3
20260506201323 60 129 0.0 3.0 0.03 0.09 0.09 100 1004.4
20260506200823 60 129 0.0 3.0 0.02 0.08 0.08 100 1004.4
20260506200347 60 127 0.0 3.0 0.01 0.07 0.07 100 1004.5
20260506195828 60 127 0.0 3.0 0.01 0.07 0.07 100 1004.6
20260506195330 60 127 0.0 0.0 0.01 0.07 0.07 100 1004.6
20260506194841 60 127 0.0 0.0 0.01 0.07 0.07 100 1004.7
20260506194351 60 126 0.0 1.0 0.01 0.07 0.07 100 1004.7
20260506193835 60 126 0.0 1.0 0.01 0.07 0.07 100 1004.8
20260506193320 60 126 0.0 1.0 0.01 0.07 0.07 100 1004.8
20260506192819 60 126 0.0 1.0 0.01 0.07 0.07 100 1004.9
20260506192328 60 126 0.0 0.0 0.01 0.07 0.07 100 1004.8
20260506191833 60 126 0.0 1.0 0.01 0.07 0.07 100 1004.8
20260506191335 60 126 0.0 1.0 0.01 0.06 0.06 100 1004.9
20260506190838 60 132 0.0 2.0 0.01 0.06 0.06 100 1004.9
20260506190337 60 132 0.0 2.0 0.01 0.06 0.06 99 1005.0
20260506185845 60 131 0.0 1.0 0.01 0.06 0.06 99 1005.0
20260506185329 60 131 0.0 3.0 0.01 0.06 0.06 99 1005.0
20260506184837 60 131 0.0 7.0 0.01 0.06 0.06 99 1005.2
20260506184319 60 121 1.0 7.0 0.02 0.06 0.06 99 1005.2
20260506183826 60 80 0.0 5.0 0.02 0.06 0.06 99 1005.2
20260506183353 60 75 0.0 3.0 0.02 0.06 0.06 99 1005.3
20260506182836 60 109 0.0 4.0 0.03 0.06 0.06 98 1005.3
20260506182335 60 131 1.0 5.0 0.03 0.06 0.06 98 1005.2
20260506181836 60 94 2.0 5.0 0.04 0.06 0.06 98 1005.3
20260506181321 60 107 0.0 4.0 0.04 0.05 0.05 98 1005.3
20260506180828 61 67 0.0 2.0 0.04 0.05 0.05 97 1005.3
20260506180333 61 67 0.0 1.0 0.04 0.05 0.05 97 1005.3
20260506175838 61 69 0.0 3.0 0.05 0.05 0.05 97 1005.4
20260506175327 61 175 0.0 3.0 0.05 0.05 0.05 97 1005.4
20260506174835 62 209 0.0 2.0 0.05 0.05 0.05 96 1005.3
20260506174338 62 209 0.0 5.0 0.04 0.04 0.04 96 1005.5
20260506173841 62 244 0.0 5.0 0.04 0.04 0.04 96 1005.5
20260506173324 63 88 0.0 2.0 0.03 0.03 0.03 95 1005.7
20260506172828 63 90 0.0 1.0 0.03 0.03 0.03 94 1005.7
20260506172328 63 129 0.0 1.0 0.02 0.02 0.02 93 1005.8
20260506171838 64 129 0.0 1.0 0.02 0.02 0.02 92 1005.7
20260506171339 64 129 0.0 1.0 0.01 0.01 0.01 91 1006.1
20260506170850 64 130 0.0 1.0 0.01 0.01 0.01 90 1006.3
20260506170342 65 132 0.0 3.0 0.01 0.01 0.01 89 1006.3
20260506165843 65 179 0.0 1.0 0.00 0.00 0.00 88 1006.4
20260506165334 66 192 0.0 4.0 0.00 0.00 0.00 87 1006.3
20260506164835 66 192 1.0 6.0 0.00 0.00 0.00 85 1006.3
20260506164332 67 130 0.0 7.0 0.00 0.00 0.00 84 1006.4
20260506163836 67 188 2.0 7.0 0.00 0.00 0.00 84 1006.2
20260506163334 68 114 0.0 6.0 0.00 0.00 0.00 82 1006.2
20260506162834 68 49 0.0 5.0 0.00 0.00 0.00 82 1006.2
20260506162331 68 242 0.0 4.0 0.00 0.00 0.00 81 1006.1
20260506161834 69 259 0.0 4.0 0.00 0.00 0.00 82 1006.0
20260506161334 69 283 1.0 4.0 0.00 0.00 0.00 78 1006.0
20260506160843 69 282 0.0 2.0 0.00 0.00 0.00 78 1006.1
20260506160349 69 288 0.0 7.0 0.00 0.00 0.00 78 1006.2
20260506155834 69 236 1.0 7.0 0.00 0.00 0.00 78 1006.1
20260506155359 69 208 2.0 7.0 0.00 0.00 0.00 77 1006.3
20260506154819 69 55 0.0 8.0 0.00 0.00 0.00 78 1006.6
20260506154322 69 9 1.0 8.0 0.00 0.00 0.00 77 1006.6
20260506153820 70 19 0.0 3.0 0.00 0.00 0.00 77 1006.6
20260506153324 69 18 0.0 5.0 0.00 0.00 0.00 78 1006.5
20260506152857 69 19 0.0 7.0 0.00 0.00 0.00 78 1006.5
20260506152341 69 348 1.0 7.0 0.00 0.00 0.00 78 1006.6
20260506151835 69 327 0.0 6.0 0.00 0.00 0.00 78 1006.7
20260506151321 69 155 1.0 6.0 0.00 0.00 0.00 79 1006.7
20260506150842 69 165 1.0 5.0 0.00 0.00 0.00 78 1006.7
20260506150330 69 228 1.0 5.0 0.00 0.00 0.00 79 1006.7
20260506145820 69 107 1.0 6.0 0.00 0.00 0.00 80 1006.8
20260506145322 68 105 1.0 7.0 0.00 0.00 0.00 80 1006.7
20260506144818 68 91 1.0 7.0 0.00 0.00 0.00 81 1006.8
20260506144401 68 196 0.0 5.0 0.00 0.00 0.00 81 1006.8
20260506143833 68 128 0.0 5.0 0.00 0.00 0.00 82 1006.8
20260506143348 67 142 0.0 2.0 0.00 0.00 0.00 84 1006.9
20260506142847 67 143 1.0 5.0 0.00 0.00 0.00 83 1007.1
20260506142334 67 134 1.0 5.0 0.00 0.00 0.00 84 1006.9
20260506141826 66 142 0.0 9.0 0.00 0.00 0.00 85 1007.0
20260506141327 66 130 1.0 6.0 0.00 0.00 0.00 85 1007.0
20260506140820 66 209 1.0 5.0 0.00 0.00 0.00 87 1006.9
20260506140341 65 83 0.0 2.0 0.00 0.00 0.00 88 1006.9
20260506135833 64 15 0.0 1.0 0.00 0.00 0.00 89 1007.1
20260506135323 64 15 0.0 4.0 0.00 0.00 0.00 89 1007.0
20260506134844 64 15 0.0 4.0 0.00 0.00 0.00 90 1007.0
20260506134331 63 153 0.0 4.0 0.00 0.00 0.00 90 1007.0
20260506133823 63 153 1.0 4.0 0.00 0.00 0.00 90 1007.0
20260506133340 63 203 0.0 2.0 0.00 0.00 0.00 90 1007.0
20260506132828 63 203 0.0 2.0 0.00 0.00 0.00 90 1006.9
20260506132344 62 203 0.0 4.0 0.00 0.00 0.00 91 1006.9
20260506131819 62 203 1.0 4.0 0.00 0.00 0.00 91 1007.0
20260506131338 62 75 0.0 1.0 0.00 0.00 0.00 92 1007.0
20260506130828 62 75 0.0 2.0 0.00 0.00 0.00 92 1007.1
20260506130324 61 75 0.0 2.0 0.00 0.00 0.00 92 1007.1
20260506125842 61 74 0.0 1.0 0.00 0.00 0.00 93 1007.2
20260506125337 61 74 0.0 3.0 0.00 0.00 0.00 93 1007.3
20260506124827 61 74 0.0 4.0 0.00 0.00 0.00 93 1007.1
20260506124334 61 74 1.0 4.0 0.00 0.00 0.00 93 1007.1
20260506123827 60 67 0.0 1.0 0.00 0.00 0.00 94 1007.6
20260506123347 60 67 0.0 3.0 0.00 0.00 0.00 94 1007.6
20260506122834 60 67 0.0 1.0 0.00 0.00 0.00 94 1007.6
20260506122355 60 67 0.0 4.0 0.00 0.00 0.00 94 1007.6
20260506121831 60 65 0.0 1.0 0.00 0.00 0.00 94 1007.7
20260506121320 60 65 0.0 2.0 0.00 0.00 0.00 95 1007.6
20260506120839 59 65 0.0 2.0 0.00 0.00 0.00 95 1007.6
20260506120335 59 65 0.0 1.0 0.00 0.00 0.00 95 1007.6
20260506115816 59 65 0.0 1.0 0.00 0.00 0.00 95 1007.4
20260506115341 59 65 0.0 1.0 0.00 0.00 0.00 96 1007.4
20260506114837 59 65 0.0 1.0 0.00 0.00 0.00 96 1007.6
20260506114335 59 65 0.0 0.0 0.00 0.00 0.00 97 1007.5
20260506113832 58 65 0.0 1.0 0.00 0.00 0.00 98 1007.6
20260506113333 58 65 0.0 1.0 0.00 0.00 0.00 98 1007.7
20260506112858 58 65 0.0 0.0 0.00 0.00 0.00 98 1007.7
20260506112335 57 65 0.0 1.0 0.00 0.00 0.00 99 1007.6
20260506111830 57 65 0.0 1.0 0.00 0.00 0.00 100 1007.5
20260506111327 57 65 0.0 3.0 0.00 0.00 0.00 100 1007.6
20260506110849 56 65 0.0 3.0 0.00 0.00 0.00 100 1007.6
20260506110327 55 64 0.0 1.0 0.00 0.00 0.00 100 1007.6
20260506105821 55 64 0.0 1.0 0.00 0.00 0.00 100 1007.7
20260506105342 54 65 0.0 0.0 0.00 0.00 0.00 100 1007.8
20260506104842 54 65 0.0 0.0 0.00 0.00 0.00 100 1007.8
20260506104333 54 65 0.0 0.0 0.00 0.00 0.00 100 1007.7
20260506103827 54 65 0.0 1.0 0.00 0.00 0.00 100 1007.7
20260506103321 53 65 0.0 0.0 0.00 0.00 0.00 100 1007.8
20260506102846 53 65 0.0 0.0 0.00 0.00 0.00 100 1007.8
20260506102343 53 65 0.0 0.0 0.00 0.00 0.00 100 1007.7
20260506101842 53 65 0.0 0.0 0.00 0.00 0.00 100 1007.6
20260506101333 53 65 0.0 0.0 0.00 0.00 0.00 99 1007.6
20260506100903 53 65 0.0 0.0 0.00 0.00 0.00 99 1007.5
20260506100336 53 65 0.0 0.0 0.00 0.00 0.00 99 1007.5
20260506095841 53 65 0.0 0.0 0.00 0.00 0.00 99 1007.6
20260506095333 53 65 0.0 0.0 0.00 0.00 0.00 99 1007.5
20260506094858 53 65 0.0 0.0 0.00 0.00 0.00 99 1007.5
20260506094323 53 65 0.0 0.0 0.00 0.00 0.00 99 1007.4
20260506093824 53 65 0.0 0.0 0.00 0.00 0.00 99 1007.4
20260506093327 53 65 0.0 0.0 0.00 0.00 0.00 98 1007.4
20260506092825 53 65 0.0 0.0 0.00 0.00 0.00 98 1007.4
20260506092328 54 65 0.0 0.0 0.00 0.00 0.00 98 1007.4
20260506091824 54 65 0.0 0.0 0.00 0.00 0.00 98 1007.4
20260506091339 54 65 0.0 0.0 0.00 0.00 0.00 98 1007.5
20260506090904 54 65 0.0 0.0 0.00 0.00 0.00 98 1007.5
20260506090338 54 65 0.0 0.0 0.00 0.00 0.00 98 1007.5
20260506085837 54 65 0.0 0.0 0.00 0.00 0.00 97 1007.5
20260506085330 54 65 0.0 0.0 0.00 0.00 0.00 97 1007.5
20260506084830 54 65 0.0 0.0 0.00 0.00 0.00 97 1007.5
20260506084328 54 65 0.0 0.0 0.00 0.00 0.00 97 1007.5
20260506083827 55 65 0.0 0.0 0.00 0.00 0.00 97 1007.5
20260506083323 55 65 0.0 0.0 0.00 0.00 0.00 97 1007.6
20260506082827 55 65 0.0 0.0 0.00 0.00 0.00 96 1007.6
20260506082412 55 65 0.0 0.0 0.00 0.00 0.00 96 1007.7
20260506081842 55 65 0.0 0.0 0.00 0.00 0.00 96 1007.7
20260506081337 55 65 0.0 0.0 0.00 0.00 0.00 96 1007.6
20260506080831 55 65 0.0 0.0 0.00 0.00 0.00 96 1007.5
20260506080322 55 65 0.0 0.0 0.00 0.00 0.00 95 1007.5
20260506073332 56 65 0.0 0.0 0.00 0.00 0.00 94 1007.6
20260506072825 56 65 0.0 0.0 0.00 0.00 0.00 93 1007.5
20260506072407 56 65 0.0 0.0 0.00 0.00 0.00 93 1007.6
20260506071848 56 65 0.0 1.0 0.00 0.00 0.00 93 1007.5
20260506071350 56 65 0.0 0.0 0.00 0.00 0.00 93 1007.6
20260506070842 56 65 0.0 0.0 0.00 0.00 0.00 93 1007.6
20260506070344 56 65 0.0 0.0 0.00 0.00 0.00 92 1007.6
20260506062343 59 65 0.0 0.0 0.00 0.00 0.00 88 1007.3
20260506061845 60 65 0.0 1.0 0.00 0.00 0.00 87 1007.3
20260506061349 60 65 0.0 1.0 0.00 0.00 0.00 87 1007.3
20260506060841 60 65 0.0 3.0 0.00 0.00 0.00 86 1007.3
20260506060343 60 65 0.0 3.0 0.00 0.00 0.00 86 1007.3
20260506051336 61 65 0.0 2.0 0.00 0.00 0.00 84 1007.6
20260506050835 61 67 0.0 1.0 0.00 0.00 0.00 85 1007.6
20260506050327 61 67 0.0 0.0 0.00 0.00 0.00 85 1007.6
20260506044826 61 93 0.0 0.0 0.00 0.00 0.00 84 1007.6
20260506044321 61 93 0.0 0.0 0.00 0.00 0.00 84 1007.7
20260506043822 61 93 0.0 1.0 0.00 0.00 0.00 83 1007.7
20260506043349 62 93 0.0 1.0 0.00 0.00 0.00 82 1007.7
20260506042847 62 93 0.0 1.0 0.00 0.00 0.00 82 1007.7
20260506042337 62 93 0.0 2.0 0.00 0.00 0.00 82 1007.6
20260506041834 62 90 0.0 2.0 0.00 0.00 0.00 81 1007.6
20260506041332 62 90 0.0 1.0 0.00 0.00 0.00 81 1007.8
20260506040836 62 90 0.0 0.0 0.00 0.00 0.00 81 1007.7
20260506040336 62 90 0.0 0.0 0.00 0.00 0.00 82 1007.8
20260506035857 62 90 0.0 0.0 0.00 0.00 0.00 82 1007.8
20260506035328 62 90 0.0 0.0 0.00 0.00 0.00 81 1007.8
20260506034829 62 90 0.0 0.0 0.00 0.00 0.00 81 1007.8
20260506034324 62 90 0.0 0.0 0.00 0.00 0.00 82 1007.7
20260506033854 62 90 0.0 0.0 0.00 0.00 0.00 82 1007.8
20260506033330 61 90 0.0 0.0 0.00 0.00 0.00 83 1007.8
20260506032831 61 90 0.0 0.0 0.00 0.00 0.00 83 1007.8
20260506032356 61 90 0.0 0.0 0.00 0.00 0.00 83 1007.9
20260506031902 61 90 0.0 0.0 0.00 0.00 0.00 83 1007.8
20260506031334 61 90 0.0 0.0 0.00 0.00 0.00 83 1007.8
20260506030827 61 90 0.0 0.0 0.00 0.00 0.00 84 1007.7
20260506030321 61 90 0.0 0.0 0.00 0.00 0.00 83 1007.7
20260506025823 61 90 0.0 0.0 0.00 0.00 0.00 84 1007.7
20260506025320 61 90 0.0 0.0 0.00 0.00 0.00 84 1007.7
20260506024847 61 90 0.0 1.0 0.00 0.00 0.00 83 1007.7
20260506024342 61 90 0.0 1.0 0.00 0.00 0.00 83 1007.5
20260506023850 61 90 0.0 0.0 0.00 0.00 0.00 84 1007.6
20260506023325 61 90 0.0 0.0 0.00 0.00 0.00 84 1007.6
20260506022828 61 90 0.0 0.0 0.00 0.00 0.00 85 1007.6
20260506022323 61 90 0.0 0.0 0.00 0.00 0.00 85 1007.6
20260506021822 61 90 0.0 0.0 0.00 0.00 0.00 85 1007.5
20260506021344 60 90 0.0 0.0 0.00 0.00 0.00 84 1007.6
20260506020841 60 90 0.0 0.0 0.00 0.00 0.00 86 1007.6
20260506020333 60 90 0.0 0.0 0.00 0.00 0.00 86 1007.6
20260506015829 60 90 0.0 0.0 0.00 0.00 0.00 86 1007.7
20260506015327 60 90 0.0 0.0 0.00 0.00 0.00 86 1007.6
20260506014824 60 90 0.0 0.0 0.00 0.00 0.00 86 1007.6
20260506014349 60 90 0.0 0.0 0.00 0.00 0.00 85 1007.4
20260506013843 60 90 0.0 0.0 0.00 0.00 0.00 85 1007.5
20260506013336 61 90 0.0 0.0 0.00 0.00 0.00 85 1007.5
20260506012904 61 90 0.0 0.0 0.00 0.00 0.00 85 1007.4
20260506012334 61 90 0.0 0.0 0.00 0.00 0.00 85 1007.3
20260506011822 62 90 0.0 0.0 0.00 0.00 0.00 84 1007.2
20260506011328 62 90 0.0 0.0 0.00 0.00 0.00 83 1007.1
20260506010839 62 90 0.0 0.0 0.00 0.00 0.00 83 1007.1
20260506010334 62 90 0.0 0.0 0.00 0.00 0.00 83 1007.1
20260506005834 63 90 0.0 0.0 0.00 0.00 0.00 81 1007.0
20260506005333 63 90 0.0 0.0 0.00 0.00 0.00 81 1007.0
20260506004826 64 90 0.0 0.0 0.00 0.00 0.00 80 1007.0
20260506004319 64 90 0.0 0.0 0.00 0.00 0.00 78 1007.0
20260506003848 65 90 0.0 0.0 0.00 0.00 0.00 77 1006.9
20260506003342 65 90 0.0 0.0 0.00 0.00 0.00 77 1006.8
20260506002840 66 90 0.0 0.0 0.00 0.00 0.00 76 1006.8
20260506002337 66 90 0.0 0.0 0.00 0.00 0.00 76 1006.7
20260506001827 67 90 0.0 0.0 0.00 0.00 0.00 74 1006.6
20260506001327 67 90 0.0 0.0 0.00 0.00 0.00 72 1006.5
20260506000859 68 90 0.0 0.0 0.00 0.00 0.00 71 1006.4
20260506000336 68 90 0.0 0.0 0.00 0.00 0.00 71 1006.4
20260505235838 69 90 0.0 1.0 0.00 0.00 0.00 70 1006.2
20260505235335 69 90 0.0 0.0 0.00 0.00 0.00 69 1006.2
20260505234835 69 90 0.0 0.0 0.00 0.00 0.00 69 1006.1
20260505234333 69 90 0.0 2.0 0.00 0.00 0.00 69 1006.0
20260505233835 69 90 0.0 2.0 0.00 0.00 0.00 69 1006.0
20260505233341 69 64 0.0 1.0 0.00 0.00 0.00 68 1005.9
20260505232840 70 64 0.0 2.0 0.00 0.00 0.00 68 1005.9
20260505232323 70 65 0.0 3.0 0.00 0.00 0.00 68 1005.8
20260505231832 70 70 0.0 3.0 0.00 0.00 0.00 67 1005.7
20260505231331 71 46 0.0 5.0 0.00 0.00 0.00 66 1005.6
20260505230823 71 305 0.0 6.0 0.00 0.00 0.00 66 1005.5
20260505230346 71 213 2.0 6.0 0.00 0.00 0.00 66 1005.5
20260505225840 71 265 0.0 5.0 0.00 0.00 0.00 66 1005.5
20260505225320 72 113 1.0 7.0 0.00 0.00 0.00 66 1005.4
20260505224824 72 113 1.0 7.0 0.00 0.00 0.00 66 1005.4
20260505224329 72 57 0.0 5.0 0.00 0.00 0.00 65 1005.3
20260505223830 72 58 0.0 5.0 0.00 0.00 0.00 67 1005.2
20260505223334 72 40 0.0 4.0 0.00 0.00 0.00 65 1005.2
20260505222840 72 61 0.0 4.0 0.00 0.00 0.00 65 1005.1
20260505222346 72 61 0.0 4.0 0.00 0.00 0.00 65 1005.0
20260505221850 73 51 0.0 7.0 0.00 0.00 0.00 65 1005.0
20260505221333 73 111 0.0 7.0 0.00 0.00 0.00 64 1005.0
20260505220839 73 315 0.0 6.0 0.00 0.00 0.00 63 1005.0
20260505220335 73 233 2.0 6.0 0.00 0.00 0.00 63 1004.9
20260505215840 74 123 2.0 7.0 0.00 0.00 0.00 62 1004.8
20260505215322 74 182 2.0 7.0 0.00 0.00 0.00 62 1004.8
20260505214828 74 35 1.0 9.0 0.00 0.00 0.00 62 1005.0
20260505214329 75 143 2.0 9.0 0.00 0.00 0.00 62 1005.1
20260505213839 75 139 4.0 9.0 0.00 0.00 0.00 61 1005.1
20260505213338 76 242 2.0 9.0 0.00 0.00 0.00 60 1005.1
20260505212822 76 40 1.0 6.0 0.00 0.00 0.00 59 1005.0
20260505212326 77 93 1.0 7.0 0.00 0.00 0.00 59 1005.0
20260505211834 77 231 1.0 6.0 0.00 0.00 0.00 58 1005.0